CZ-6A DEB, 61146

Orbit data source: Space-Track

CZ-6A DEB, 61146 is space debris in LEO originally from a launch on Tue, 06 Aug 2024 UTC launched from the Taiyaun Space Center, China (TSC). Debris objects in space refer to the collection of defunct objects orbiting the Earth. Examples of debris include non-operational satellites, rocket bodies, and fragments generated from explosions, collisions, or faulty payload assembly.

Loading next visibility...
Identifier
61146, 2024-140QQ
Orbit
LEO
Country
Flag of CNCN / PRC
Related business
Manufacturer
SAST
Mission
Spacecraft
Bus & Motor
Unknown
Mass
Unknown
Launch date (UTC)
2024-08-06 (2 years ago)
Launch vehicle
Unknown
Launch site
Taiyaun Space Center, China (TSC)
Object type
Payload
Rocket body
Debris
Shape & HBR
Unknown shape, 0.1 m
Radar Cross Section
Medium (>0.1 m² and <1 m²)

Expand to show TLE details & history
Last TLE update: 15 hours ago

TLE from 15 hours ago
0 CZ-6A DEB
1 61146U 24140QQ  26171.29854463  .00002974  00000-0  12197-2 0  9991
2 61146  89.1333 284.8448 0080897 217.8371 141.7120 14.25153769 94839
Epoch: 2026-06-20T07:09Z
TLE epoch observation values (Epoch: 2026-06-20T07:09:54.256Z)
Latitude
0.00003°
Longitude
-91.14644°
Altitude
856.855 km
Speed
7.4 km/s
True Right ascension
18h 59m 22s
True Declination
0° 00' 00"
Sunlit
Object was in full shadow at epoch
Visualization orbit readout
Latitude
Unknown
Longitude
Unknown
Altitude
Unknown
Speed
Unknown
Apparent Right ascension
Unknown
Apparent Declination
Unknown
Sunlit
N/A
Visualization observer readout
Local Sidereal Time
08:42:32
Azimuth
Unknown
Elevation
Unknown
Doppler factor
Unknown
Orbital elements
Apogee altitude
863.027 km
Perigee altitude
746.81 km
Semi-major axis
7,183.056 km
Eccentricity
0.00809
Inclination
89.1333°
RAAN
284.8448°
Arg. of periapsis
217.8371°
True anomaly
142.28186°
Mean anomaly
141.712°
Eccentric anomaly
141.99738°
Mean motion
3.56516 °/min
Orbital period
100.98 mins
BSTAR
0.0012197
Loading maneuver chart data...
Computing Atmospheric mass density...
Loading historical data...
Loading historical data...
Loading historical data...
Loading historical data...
Loading historical data...
Loading historical data...
Loading historical data...

Documentation

Showing up to 5 results
|